QPF
0.01 0.01 0.00 0.00 0.01 0.01 0.02 0.02 0.02 0.01 0.01 0.02 0.03 0.03 0.03 0.02 0.02 0.01 0.01 0.01 0.01 0.01 0.00 0.00 0.01 0.01 0.01 0.00 0.00 0.00 0.00 0.00 0.00 0.01 0.02 0.02 0.02 0.01 0.01 0.01 0.01 0.01 0.01
0.00 0.00 0.00 0.00 0.01 0.01 0.01 0.03 0.03 0.02 0.01 0.01 0.02 0.04 0.05 0.02 0.02 0.02 0.02 0.01 0.01 0.01 0.01 0.00 0.00 0.00 0.00 0.00 0.00 0.00 0.00 0.00 0.00 0.01 0.01 0.01 0.01 0.01 0.01 0.01 0.01 0.01 0.01
0.00 0.00 0.00 0.00 0.00 0.01 0.01 0.02 0.02 0.02 0.01 0.01 0.01 0.02 0.02 0.01 0.01 0.02 0.03 0.02 0.02 0.01 0.01 0.01 0.00 0.01 0.01 0.01 0.01 0.01 0.01 0.01 0.00 0.01 0.01 0.01 0.01 0.01 0.02 0.01 0.01 0.01 0.01
0.00 0.00 0.00 0.00 0.01 0.01 0.01 0.01 0.01 0.02 0.01 0.01 0.00 0.01 0.01 0.01 0.01 0.01 0.01 0.02 0.02 0.01 0.01 0.01 0.01 0.01 0.01 0.02 0.02 0.01 0.01 0.01 0.01 0.01 0.01 0.01 0.01 0.01 0.02 0.03 0.02 0.01 0.01
0.00 0.00 0.00 0.00 0.01 0.01 0.00 0.01 0.02 0.02 0.01 0.00 0.00 0.00 0.00 0.01 0.01 0.02 0.01 0.01 0.02 0.02 0.02 0.01 0.01 0.02 0.02 0.03 0.03 0.02 0.02 0.01 0.01 0.01 0.01 0.01 0.01 0.00 0.01 0.02 0.02 0.02 0.01
0.00 0.00 0.00 0.00 0.01 0.00 0.01 0.01 0.01 0.01 0.01 0.00 0.00 0.00 0.00 0.00 0.01 0.01 0.01 0.02 0.03 0.03 0.02 0.02 0.02 0.02 0.03 0.03 0.03 0.03 0.03 0.01 0.01 0.01 0.01 0.01 0.01 0.01 0.01 0.01 0.02 0.02 0.01
0.00 0.00 0.00 0.00 0.00 0.00 0.00 0.00 0.00 0.00 0.01 0.00 0.00 0.00 0.00 0.00 0.01 0.02 0.02 0.02 0.02 0.03 0.03 0.03 0.02 0.02 0.03 0.04 0.03 0.04 0.04 0.03 0.01 0.01 0.02 0.03 0.03 0.02 0.02 0.01 0.01 0.02 0.01
0.00 0.00 0.00 0.00 0.00 0.01 0.01 0.01 0.01 0.01 0.01 0.00 0.00 0.00 0.00 0.00 0.01 0.01 0.01 0.01 0.02 0.02 0.02 0.03 0.03 0.03 0.04 0.04 0.04 0.04 0.04 0.04 0.03 0.02 0.02 0.04 0.05 0.05 0.04 0.04 0.03 0.03 0.02
0.00 0.00 0.00 0.01 0.01 0.01 0.01 0.01 0.01 0.01 0.01 0.01 0.00 0.00 0.00 0.00 0.00 0.00 0.01 0.01 0.01 0.02 0.02 0.03 0.03 0.04 0.05 0.06 0.06 0.06 0.05 0.05 0.05 0.04 0.04 0.04 0.05 0.07 0.07 0.06 0.04 0.04 0.04
0.00 0.00 0.00 0.00 0.01 0.00 0.01 0.01 0.01 0.02 0.02 0.01 0.00 0.00 0.00 0.00 0.00 0.00 0.00 0.01 0.01 0.01 0.02 0.02 0.03 0.04 0.06 0.07 0.07 0.05 0.04 0.04 0.04 0.05 0.06 0.06 0.05 0.06 0.08 0.07 0.06 0.05 0.05
0.00 0.00 0.00 0.00 0.00 0.00 0.01 0.01 0.01 0.02 0.02 0.02 0.01 0.01 0.01 0.01 0.01 0.01 0.01 0.01 0.01 0.02 0.02 0.02 0.02 0.03 0.04 0.06 0.08 0.08 0.06 0.05 0.05 0.05 0.07 0.08 0.07 0.07 0.08 0.08 0.08 0.06 0.05
0.00 0.00 0.00 0.00 0.00 0.00 0.00 0.00 0.01 0.02 0.03 0.03 0.02 0.02 0.02 0.01 0.01 0.01 0.01 0.01 0.01 0.01 0.01 0.01 0.01 0.02 0.03 0.03 0.04 0.06 0.06 0.07 0.07 0.07 0.08 0.10 0.10 0.10 0.08 0.07 0.08 0.07 0.06
0.00 0.00 0.00 0.00 0.00 0.01 0.01 0.00 0.01 0.02 0.03 0.03 0.03 0.03 0.03 0.02 0.02 0.02 0.02 0.01 0.02 0.02 0.01 0.01 0.01 0.01 0.01 0.02 0.01 0.01 0.02 0.03 0.03 0.04 0.05 0.07 0.08 0.07 0.07 0.06 0.06 0.06 0.05
0.00 0.00 0.00 0.00 0.00 0.01 0.01 0.02 0.02 0.02 0.04 0.03 0.03 0.03 0.03 0.02 0.02 0.02 0.02 0.02 0.02 0.01 0.01 0.01 0.01 0.01 0.01 0.02 0.01 0.01 0.01 0.02 0.01 0.01 0.02 0.03 0.03 0.04 0.04 0.04 0.04 0.04 0.04
0.00 0.00 0.00 0.00 0.00 0.00 0.01 0.01 0.01 0.01 0.02 0.02 0.01 0.01 0.01 0.01 0.01 0.01 0.02 0.01 0.01 0.01 0.01 0.01 0.02 0.02 0.02 0.01 0.01 0.02 0.02 0.01 0.01 0.01 0.01 0.02 0.02 0.03 0.04 0.03 0.03 0.03 0.03
0.00 0.00 0.00 0.00 0.00 0.00 0.01 0.01 0.00 0.01 0.02 0.01 0.01 0.00 0.00 0.00 0.01 0.01 0.01 0.01 0.01 0.01 0.01 0.02 0.02 0.02 0.02 0.02 0.01 0.01 0.02 0.01 0.01 0.00 0.01 0.01 0.02 0.03 0.04 0.04 0.04 0.03 0.03
0.01 0.00 0.00 0.01 0.01 0.01 0.01 0.01 0.02 0.02 0.01 0.01 0.01 0.01 0.01 0.01 0.01 0.01 0.01 0.01 0.01 0.01 0.01 0.01 0.01 0.01 0.02 0.02 0.01 0.01 0.01 0.01 0.01 0.00 0.00 0.01 0.01 0.02 0.02 0.03 0.05 0.04 0.03
0.00 0.00 0.00 0.00 0.00 0.01 0.01 0.02 0.03 0.02 0.01 0.01 0.01 0.02 0.01 0.01 0.01 0.01 0.01 0.01 0.01 0.01 0.00 0.01 0.01 0.00 0.01 0.01 0.01 0.02 0.02 0.01 0.01 0.01 0.00 0.01 0.01 0.01 0.02 0.02 0.03 0.02 0.02
0.01 0.00 0.00 0.00 0.00 0.01 0.01 0.01 0.02 0.03 0.01 0.01 0.01 0.01 0.01 0.01 0.01 0.01 0.02 0.02 0.01 0.01 0.01 0.01 0.01 0.00 0.01 0.01 0.01 0.02 0.02 0.02 0.02 0.01 0.01 0.01 0.01 0.01 0.02 0.02 0.02 0.02 0.01
0.01 0.00 0.00 0.00 0.00 0.01 0.01 0.01 0.01 0.01 0.01 0.01 0.01 0.01 0.02 0.02 0.01 0.01 0.02 0.02 0.01 0.01 0.01 0.01 0.01 0.01 0.01 0.01 0.01 0.01 0.02 0.02 0.03 0.02 0.02 0.02 0.02 0.02 0.01 0.01 0.02 0.01 0.02
0.01 0.01 0.01 0.01 0.01 0.01 0.00 0.01 0.01 0.01 0.01 0.01 0.01 0.02 0.02 0.02 0.02 0.01 0.01 0.01 0.01 0.01 0.01 0.01 0.01 0.01 0.02 0.01 0.01 0.01 0.02 0.02 0.02 0.02 0.02 0.02 0.02 0.02 0.01 0.01 0.01 0.01 0.02
0.01 0.01 0.01 0.01 0.02 0.01 0.01 0.01 0.01 0.01 0.01 0.01 0.01 0.01 0.01 0.01 0.01 0.01 0.01 0.01 0.01 0.01 0.01 0.01 0.01 0.02 0.02 0.02 0.02 0.02 0.02 0.03 0.02 0.02 0.02 0.01 0.01 0.01 0.01 0.01 0.01 0.01 0.02
0.00 0.01 0.01 0.01 0.01 0.02 0.02 0.02 0.02 0.01 0.01 0.01 0.01 0.01 0.01 0.01 0.01 0.01 0.01 0.01 0.01 0.01 0.01 0.01 0.02 0.02 0.03 0.03 0.02 0.02 0.02 0.02 0.02 0.02 0.02 0.02 0.01 0.01 0.01 0.01 0.02 0.02 0.02
0.00 0.01 0.01 0.01 0.01 0.02 0.02 0.01 0.01 0.01 0.01 0.01 0.01 0.02 0.01 0.01 0.01 0.01 0.01 0.01 0.01 0.00 0.01 0.00 0.01 0.01 0.02 0.02 0.01 0.01 0.01 0.01 0.02 0.02 0.03 0.03 0.02 0.01 0.01 0.01 0.02 0.02 0.02
0.00 0.01 0.01 0.01 0.01 0.01 0.01 0.01 0.01 0.01 0.01 0.01 0.01 0.01 0.01 0.01 0.01 0.01 0.01 0.01 0.01 0.01 0.01 0.01 0.01 0.01 0.01 0.02 0.02 0.01 0.01 0.01 0.01 0.02 0.02 0.02 0.02 0.01 0.01 0.01 0.01 0.02 0.02
0.00 0.00 0.01 0.01 0.01 0.00 0.01 0.01 0.01 0.01 0.01 0.01 0.01 0.01 0.01 0.01 0.01 0.01 0.01 0.01 0.01 0.01 0.01 0.02 0.02 0.01 0.01 0.02 0.02 0.02 0.02 0.01 0.01 0.01 0.01 0.01 0.01 0.01 0.01 0.01 0.01 0.02 0.02
MSLP
1019.08 1018.95 1018.82 1018.69 1018.57 1018.48 1018.44 1018.47 1018.58 1018.75 1018.98 1019.24 1019.49 1019.70 1019.84 1019.90 1019.89 1019.80 1019.69 1019.57 1019.48 1019.43 1019.44 1019.50 1019.60 1019.72 1019.85 1019.97 1020.08 1020.20 1020.32 1020.45 1020.61 1020.79 1020.97 1021.13 1021.23 1021.27 1021.21 1021.06 1020.82 1020.50 1020.12
1019.03 1018.99 1018.92 1018.80 1018.67 1018.53 1018.44 1018.42 1018.50 1018.69 1018.95 1019.27 1019.59 1019.87 1020.06 1020.15 1020.12 1020.01 1019.85 1019.68 1019.54 1019.46 1019.46 1019.52 1019.64 1019.77 1019.91 1020.03 1020.13 1020.22 1020.31 1020.42 1020.56 1020.75 1020.95 1021.17 1021.35 1021.48 1021.52 1021.47 1021.31 1021.06 1020.73
1018.78 1018.85 1018.86 1018.79 1018.66 1018.51 1018.38 1018.32 1018.37 1018.55 1018.84 1019.21 1019.59 1019.93 1020.18 1020.31 1020.30 1020.18 1019.99 1019.78 1019.61 1019.50 1019.48 1019.54 1019.65 1019.79 1019.92 1020.03 1020.10 1020.16 1020.21 1020.29 1020.42 1020.60 1020.83 1021.09 1021.35 1021.58 1021.73 1021.79 1021.74 1021.58 1021.32
1018.32 1018.51 1018.63 1018.64 1018.55 1018.41 1018.26 1018.17 1018.20 1018.37 1018.67 1019.07 1019.50 1019.90 1020.20 1020.37 1020.38 1020.27 1020.08 1019.85 1019.65 1019.52 1019.47 1019.51 1019.61 1019.74 1019.86 1019.95 1020.00 1020.03 1020.05 1020.09 1020.19 1020.35 1020.59 1020.89 1021.21 1021.52 1021.78 1021.95 1022.02 1021.98 1021.81
1017.70 1018.03 1018.27 1018.38 1018.36 1018.25 1018.11 1018.01 1018.02 1018.18 1018.48 1018.89 1019.35 1019.78 1020.13 1020.33 1020.38 1020.28 1020.08 1019.85 1019.63 1019.47 1019.40 1019.42 1019.51 1019.62 1019.73 1019.81 1019.84 1019.84 1019.82 1019.83 1019.89 1020.02 1020.25 1020.55 1020.90 1021.27 1021.61 1021.90 1022.09 1022.17 1022.14
1017.01 1017.46 1017.83 1018.06 1018.13 1018.08 1017.97 1017.87 1017.87 1018.00 1018.28 1018.68 1019.15 1019.60 1019.96 1020.19 1020.25 1020.17 1019.98 1019.74 1019.51 1019.34 1019.25 1019.25 1019.32 1019.43 1019.53 1019.60 1019.62 1019.60 1019.56 1019.53 1019.54 1019.63 1019.81 1020.07 1020.42 1020.81 1021.21 1021.58 1021.90 1022.12 1022.23
1016.33 1016.90 1017.39 1017.73 1017.90 1017.91 1017.84 1017.75 1017.73 1017.84 1018.09 1018.46 1018.90 1019.34 1019.70 1019.93 1020.01 1019.93 1019.75 1019.52 1019.28 1019.10 1019.00 1019.00 1019.06 1019.17 1019.28 1019.35 1019.38 1019.35 1019.29 1019.22 1019.18 1019.20 1019.31 1019.51 1019.81 1020.18 1020.60 1021.04 1021.45 1021.81 1022.08
1015.73 1016.38 1016.97 1017.41 1017.66 1017.74 1017.71 1017.64 1017.61 1017.69 1017.89 1018.21 1018.61 1019.00 1019.34 1019.56 1019.63 1019.56 1019.39 1019.16 1018.94 1018.76 1018.67 1018.66 1018.74 1018.86 1018.99 1019.08 1019.13 1019.11 1019.03 1018.93 1018.83 1018.78 1018.80 1018.91 1019.13 1019.45 1019.85 1020.32 1020.81 1021.28 1021.71
1015.25 1015.96 1016.61 1017.11 1017.43 1017.56 1017.56 1017.50 1017.46 1017.50 1017.66 1017.92 1018.25 1018.59 1018.88 1019.07 1019.13 1019.07 1018.91 1018.70 1018.50 1018.34 1018.27 1018.29 1018.39 1018.54 1018.70 1018.82 1018.89 1018.89 1018.82 1018.70 1018.55 1018.42 1018.35 1018.36 1018.48 1018.72 1019.08 1019.54 1020.08 1020.65 1021.22
1014.88 1015.61 1016.28 1016.81 1017.15 1017.31 1017.34 1017.29 1017.24 1017.25 1017.36 1017.56 1017.82 1018.10 1018.34 1018.50 1018.55 1018.49 1018.36 1018.18 1018.01 1017.90 1017.86 1017.92 1018.05 1018.24 1018.43 1018.60 1018.70 1018.73 1018.67 1018.54 1018.36 1018.18 1018.02 1017.94 1017.96 1018.11 1018.40 1018.84 1019.39 1020.03 1020.71
1014.59 1015.28 1015.93 1016.45 1016.79 1016.96 1017.00 1016.96 1016.91 1016.90 1016.97 1017.12 1017.33 1017.55 1017.74 1017.87 1017.92 1017.88 1017.77 1017.65 1017.53 1017.47 1017.49 1017.59 1017.77 1017.99 1018.22 1018.43 1018.57 1018.63 1018.59 1018.47 1018.28 1018.06 1017.85 1017.70 1017.64 1017.71 1017.94 1018.33 1018.87 1019.53 1020.28
1014.30 1014.92 1015.51 1015.98 1016.30 1016.47 1016.52 1016.49 1016.46 1016.46 1016.51 1016.63 1016.80 1016.98 1017.14 1017.25 1017.30 1017.29 1017.23 1017.16 1017.12 1017.12 1017.20 1017.35 1017.57 1017.82 1018.08 1018.31 1018.48 1018.57 1018.56 1018.46 1018.29 1018.07 1017.85 1017.66 1017.55 1017.57 1017.73 1018.07 1018.58 1019.23 1020.00
1013.93 1014.46 1014.96 1015.37 1015.65 1015.81 1015.88 1015.89 1015.90 1015.93 1016.00 1016.12 1016.27 1016.43 1016.57 1016.68 1016.74 1016.77 1016.77 1016.77 1016.80 1016.88 1017.02 1017.22 1017.47 1017.74 1018.01 1018.25 1018.44 1018.54 1018.56 1018.49 1018.35 1018.17 1017.96 1017.78 1017.67 1017.65 1017.78 1018.07 1018.52 1019.13 1019.87
1013.41 1013.84 1014.25 1014.58 1014.83 1015.00 1015.11 1015.18 1015.24 1015.33 1015.45 1015.59 1015.75 1015.91 1016.06 1016.18 1016.27 1016.33 1016.40 1016.47 1016.58 1016.73 1016.93 1017.18 1017.45 1017.73 1017.99 1018.22 1018.40 1018.51 1018.55 1018.51 1018.42 1018.29 1018.14 1018.00 1017.92 1017.91 1018.01 1018.26 1018.65 1019.19 1019.86
1012.69 1013.03 1013.34 1013.62 1013.86 1014.05 1014.21 1014.36 1014.52 1014.69 1014.88 1015.07 1015.26 1015.44 1015.60 1015.73 1015.85 1015.97 1016.10 1016.25 1016.43 1016.65 1016.91 1017.19 1017.47 1017.74 1017.98 1018.18 1018.34 1018.44 1018.49 1018.48 1018.45 1018.38 1018.31 1018.24 1018.20 1018.23 1018.33 1018.54 1018.87 1019.33 1019.90
1011.76 1012.01 1012.26 1012.50 1012.74 1012.98 1013.22 1013.47 1013.74 1014.01 1014.28 1014.53 1014.76 1014.97 1015.14 1015.30 1015.45 1015.61 1015.80 1016.02 1016.28 1016.56 1016.87 1017.18 1017.47 1017.73 1017.94 1018.11 1018.23 1018.31 1018.35 1018.38 1018.39 1018.40 1018.40 1018.42 1018.45 1018.52 1018.64 1018.82 1019.09 1019.46 1019.92
1010.64 1010.82 1011.03 1011.26 1011.52 1011.82 1012.15 1012.51 1012.89 1013.27 1013.62 1013.94 1014.21 1014.43 1014.62 1014.80 1014.97 1015.17 1015.41 1015.70 1016.03 1016.38 1016.74 1017.08 1017.38 1017.63 1017.82 1017.95 1018.04 1018.10 1018.15 1018.19 1018.25 1018.32 1018.40 1018.49 1018.60 1018.71 1018.85 1019.02 1019.24 1019.52 1019.88
1009.36 1009.51 1009.70 1009.94 1010.24 1010.61 1011.03 1011.50 1011.98 1012.44 1012.87 1013.23 1013.53 1013.77 1013.97 1014.15 1014.34 1014.58 1014.86 1015.20 1015.60 1016.01 1016.43 1016.81 1017.14 1017.40 1017.59 1017.70 1017.78 1017.83 1017.87 1017.94 1018.03 1018.15 1018.30 1018.46 1018.63 1018.79 1018.95 1019.11 1019.29 1019.50 1019.76
1008.04 1008.17 1008.36 1008.62 1008.97 1009.39 1009.89 1010.44 1010.99 1011.52 1011.99 1012.38 1012.69 1012.94 1013.13 1013.31 1013.51 1013.77 1014.09 1014.48 1014.93 1015.42 1015.90 1016.34 1016.71 1017.01 1017.21 1017.35 1017.43 1017.49 1017.56 1017.65 1017.78 1017.95 1018.15 1018.36 1018.57 1018.77 1018.95 1019.11 1019.25 1019.41 1019.60
1006.79 1006.92 1007.11 1007.38 1007.76 1008.22 1008.77 1009.36 1009.95 1010.50 1010.99 1011.39 1011.69 1011.92 1012.10 1012.27 1012.48 1012.75 1013.10 1013.54 1014.04 1014.59 1015.14 1015.65 1016.09 1016.45 1016.71 1016.89 1017.02 1017.12 1017.22 1017.36 1017.53 1017.74 1017.98 1018.23 1018.48 1018.70 1018.89 1019.04 1019.17 1019.30 1019.43
1005.73 1005.85 1006.03 1006.31 1006.69 1007.16 1007.71 1008.30 1008.89 1009.43 1009.90 1010.28 1010.56 1010.77 1010.93 1011.09 1011.30 1011.58 1011.95 1012.42 1012.97 1013.58 1014.19 1014.78 1015.30 1015.73 1016.07 1016.34 1016.54 1016.71 1016.88 1017.07 1017.29 1017.55 1017.82 1018.11 1018.38 1018.62 1018.81 1018.96 1019.08 1019.19 1019.30
1004.96 1005.06 1005.22 1005.48 1005.83 1006.27 1006.78 1007.32 1007.87 1008.37 1008.79 1009.13 1009.38 1009.56 1009.71 1009.86 1010.06 1010.35 1010.74 1011.23 1011.81 1012.46 1013.13 1013.77 1014.37 1014.89 1015.33 1015.69 1015.99 1016.25 1016.51 1016.77 1017.05 1017.36 1017.67 1017.99 1018.27 1018.52 1018.72 1018.87 1018.99 1019.09 1019.20
1004.52 1004.59 1004.72 1004.92 1005.21 1005.58 1006.02 1006.48 1006.95 1007.38 1007.75 1008.04 1008.25 1008.41 1008.54 1008.69 1008.89 1009.18 1009.57 1010.07 1010.66 1011.33 1012.02 1012.71 1013.37 1013.96 1014.49 1014.95 1015.35 1015.72 1016.07 1016.42 1016.77 1017.13 1017.49 1017.82 1018.13 1018.39 1018.59 1018.75 1018.87 1018.98 1019.10
1004.43 1004.45 1004.52 1004.65 1004.85 1005.13 1005.46 1005.82 1006.19 1006.53 1006.83 1007.07 1007.25 1007.39 1007.52 1007.67 1007.87 1008.16 1008.54 1009.03 1009.61 1010.26 1010.95 1011.65 1012.34 1012.98 1013.57 1014.11 1014.61 1015.07 1015.51 1015.95 1016.38 1016.79 1017.19 1017.56 1017.88 1018.15 1018.36 1018.53 1018.67 1018.80 1018.93
1004.61 1004.58 1004.58 1004.63 1004.73 1004.89 1005.10 1005.35 1005.61 1005.86 1006.09 1006.28 1006.43 1006.57 1006.70 1006.85 1007.06 1007.34 1007.70 1008.16 1008.70 1009.31 1009.96 1010.64 1011.31 1011.96 1012.58 1013.18 1013.74 1014.28 1014.80 1015.31 1015.80 1016.27 1016.70 1017.10 1017.44 1017.73 1017.96 1018.14 1018.30 1018.45 1018.61
1004.96 1004.88 1004.81 1004.77 1004.77 1004.82 1004.91 1005.04 1005.20 1005.36 1005.52 1005.67 1005.81 1005.94 1006.08 1006.24 1006.45 1006.72 1007.06 1007.47 1007.95 1008.49 1009.08 1009.69 1010.31 1010.93 1011.55 1012.15 1012.74 1013.32 1013.90 1014.45 1014.99 1015.50 1015.97 1016.39 1016.75 1017.05 1017.30 1017.51 1017.69 1017.87 1018.07
Thickness
5733 5734 5734 5732 5728 5725 5723 5720 5718 5716 5714 5711 5707 5705 5703 5703 5703 5703 5703 5702 5702 5701 5700 5699 5698 5697 5696 5694 5694 5693 5690 5689 5689 5687 5685 5685 5687 5687 5688 5688 5688 5689 5689
5729 5729 5730 5729 5726 5723 5721 5719 5717 5715 5713 5710 5707 5705 5703 5701 5701 5700 5700 5699 5699 5698 5698 5696 5695 5694 5692 5691 5690 5689 5685 5684 5685 5682 5677 5674 5675 5679 5682 5682 5683 5683 5684
5729 5727 5727 5726 5725 5722 5720 5719 5716 5714 5712 5710 5706 5703 5700 5698 5696 5696 5696 5696 5696 5696 5695 5694 5692 5691 5690 5688 5687 5685 5683 5680 5680 5680 5677 5670 5667 5669 5673 5675 5677 5677 5678
5731 5729 5727 5724 5723 5722 5721 5718 5715 5712 5710 5708 5704 5700 5695 5692 5693 5693 5693 5693 5693 5693 5692 5691 5690 5688 5687 5685 5684 5683 5681 5679 5676 5676 5676 5675 5672 5667 5664 5668 5670 5672 5672
5732 5730 5729 5726 5725 5723 5719 5716 5714 5711 5708 5705 5702 5699 5695 5693 5692 5691 5690 5689 5689 5689 5688 5688 5687 5686 5684 5683 5682 5680 5679 5677 5675 5674 5673 5671 5669 5667 5663 5660 5662 5664 5666
5731 5730 5728 5725 5723 5721 5718 5714 5711 5708 5706 5703 5700 5697 5693 5691 5688 5687 5686 5685 5685 5685 5685 5684 5683 5682 5681 5680 5679 5677 5676 5675 5674 5672 5671 5669 5667 5664 5662 5657 5656 5656 5658
5729 5726 5723 5721 5719 5717 5715 5712 5709 5705 5703 5701 5698 5696 5693 5690 5687 5685 5684 5682 5681 5681 5681 5681 5679 5678 5677 5676 5675 5674 5672 5671 5670 5669 5668 5667 5666 5665 5662 5657 5653 5652 5652
5728 5726 5724 5722 5719 5716 5714 5711 5708 5705 5702 5699 5697 5695 5692 5689 5687 5685 5683 5681 5680 5679 5679 5678 5677 5675 5674 5673 5672 5670 5669 5668 5666 5666 5665 5663 5663 5663 5661 5657 5652 5647 5645
5727 5725 5723 5721 5718 5716 5713 5711 5707 5704 5701 5698 5696 5693 5690 5688 5685 5683 5681 5680 5679 5678 5677 5676 5674 5672 5670 5669 5667 5665 5664 5663 5662 5661 5661 5660 5660 5659 5658 5657 5654 5648 5641
5725 5724 5721 5720 5718 5716 5713 5710 5707 5704 5701 5698 5694 5692 5689 5686 5684 5681 5679 5678 5677 5675 5674 5672 5670 5668 5666 5665 5663 5661 5660 5658 5657 5657 5656 5655 5655 5654 5654 5653 5651 5649 5644
5724 5722 5720 5719 5717 5714 5711 5707 5705 5702 5698 5696 5693 5690 5687 5685 5682 5679 5678 5676 5674 5673 5671 5669 5667 5665 5663 5661 5659 5657 5656 5654 5653 5653 5651 5651 5650 5649 5648 5647 5646 5644 5642
5723 5721 5719 5716 5713 5710 5708 5705 5703 5700 5697 5695 5691 5688 5685 5682 5679 5676 5675 5674 5671 5670 5668 5666 5663 5661 5659 5658 5656 5654 5652 5650 5648 5648 5647 5646 5646 5644 5643 5642 5641 5640 5638
5718 5716 5714 5712 5710 5708 5706 5703 5701 5699 5696 5693 5689 5685 5682 5679 5676 5674 5672 5671 5669 5666 5664 5662 5660 5658 5656 5654 5653 5651 5649 5647 5645 5644 5643 5643 5641 5640 5639 5638 5636 5635 5634
5714 5711 5709 5708 5706 5705 5703 5701 5698 5696 5694 5690 5686 5683 5680 5678 5675 5672 5670 5667 5665 5663 5660 5659 5657 5655 5654 5652 5650 5648 5645 5644 5642 5641 5640 5639 5638 5636 5635 5634 5632 5631 5628
5709 5707 5705 5703 5702 5701 5699 5698 5696 5694 5692 5687 5683 5681 5678 5676 5672 5669 5666 5664 5661 5659 5657 5655 5653 5651 5650 5649 5647 5644 5642 5640 5638 5637 5636 5636 5635 5635 5633 5631 5629 5627 5623
5705 5704 5703 5701 5699 5697 5696 5694 5692 5691 5688 5684 5681 5679 5675 5672 5669 5666 5663 5660 5657 5655 5653 5651 5649 5647 5647 5646 5644 5642 5639 5637 5635 5633 5632 5631 5631 5630 5629 5628 5627 5625 5621
5701 5700 5699 5698 5696 5695 5693 5691 5689 5688 5684 5681 5678 5675 5672 5668 5665 5663 5659 5656 5654 5651 5649 5647 5645 5643 5642 5642 5641 5639 5636 5633 5631 5629 5628 5628 5627 5625 5624 5623 5622 5620 5619
5697 5696 5695 5694 5693 5692 5690 5688 5685 5682 5679 5676 5673 5671 5668 5665 5662 5659 5656 5653 5650 5647 5645 5643 5641 5640 5639 5639 5637 5635 5632 5629 5627 5626 5625 5623 5622 5621 5619 5617 5615 5613 5613
5695 5694 5693 5691 5689 5687 5685 5682 5678 5676 5673 5670 5668 5667 5664 5661 5657 5654 5651 5649 5646 5644 5641 5639 5637 5635 5635 5635 5633 5631 5627 5625 5623 5622 5621 5620 5618 5618 5616 5612 5609 5607 5607
5691 5690 5688 5685 5682 5681 5679 5675 5671 5669 5666 5665 5664 5662 5660 5657 5654 5651 5648 5645 5643 5640 5638 5635 5633 5632 5631 5631 5629 5627 5623 5620 5618 5617 5616 5615 5614 5613 5611 5607 5604 5601 5601
5684 5683 5680 5677 5676 5674 5672 5668 5665 5663 5663 5662 5660 5657 5655 5653 5650 5647 5645 5642 5639 5635 5632 5630 5628 5627 5626 5625 5624 5622 5619 5616 5613 5611 5610 5609 5609 5607 5605 5602 5600 5599 5597
5675 5674 5671 5669 5668 5667 5664 5661 5659 5659 5658 5656 5653 5651 5650 5648 5646 5643 5640 5637 5634 5630 5627 5624 5622 5621 5620 5619 5618 5617 5615 5612 5609 5607 5605 5604 5603 5602 5600 5597 5595 5593 5590
5666 5665 5663 5661 5660 5659 5658 5655 5654 5653 5651 5649 5646 5645 5643 5642 5640 5637 5634 5630 5628 5625 5621 5619 5616 5615 5613 5612 5612 5610 5609 5607 5604 5603 5601 5599 5597 5595 5593 5591 5589 5587 5583
5657 5656 5654 5652 5651 5651 5651 5650 5649 5647 5644 5641 5638 5637 5635 5633 5632 5630 5628 5624 5622 5619 5616 5613 5611 5609 5607 5605 5604 5602 5601 5600 5598 5596 5594 5592 5590 5587 5586 5584 5582 5579 5577
5648 5647 5646 5644 5644 5644 5643 5643 5641 5639 5636 5633 5631 5629 5627 5625 5623 5622 5620 5619 5617 5616 5613 5610 5607 5604 5602 5602 5600 5597 5595 5593 5591 5588 5585 5582 5579 5577 5576 5574 5572 5571 5568
5638 5637 5636 5636 5636 5636 5635 5635 5634 5632 5629 5625 5623 5621 5619 5617 5615 5613 5611 5611 5610 5610 5608 5606 5603 5601 5600 5597 5594 5591 5589 5587 5585 5580 5576 5574 5572 5570 5568 5566 5564 5562 5560